Regional Weather Roundup
Issued by NWS Green Bay, WI

Home | Current Version | Previous Version | Graphics & Text | Print | Product List | Glossary Off
Versions: 1 2 3 4 5 6 7 8 9 10 11 12 13 14 15 16 17 18 19 20 21 22 23 24 25 26 27 28 29 30 31 32 33 34 35 36 37 38 39 40 41 42 43 44 45 46 47 48 49 50

683
ASUS43 KGRB 022100
RWRGRB

NORTH-CENTRAL AND NORTHEAST WISCONSIN REGIONAL WEATHER ROUNDUP
NATIONAL WEATHER SERVICE GREEN BAY WI
400 PM CDT MON MAY 02 2016

WIZ005-009-010>012-018-019-022200-
NORTH CENTRAL WISCONSIN

CITY           SKY/WX    TMP DP  RH WIND       PRES   REMARKS
IRONWOOD         N/A     59  30  33 N5        30.01F
MANITOWISH WTR NOT AVBL
ARBOR VITAE    NOT AVBL
EAGLE RIVER    NOT AVBL
LAND O LAKES   NOT AVBL
RHINELANDER    PTSUNNY   63  29  27 CALM      30.02F
PHILLIPS       NOT AVBL
ANTIGO         NOT AVBL
TOMAHAWK       NOT AVBL
MERRILL        NOT AVBL
$$

WIZ013-073-022200-
NORTHEAST WISCONSIN

CITY           SKY/WX    TMP DP  RH WIND       PRES   REMARKS
IRON MOUNTAIN  CLOUDY    64  26  23 NE10G18   29.99F
MARINETTE      SUNNY     61  28  29 S12G17    30.02F
$$

WIZ017-030-035>037-045-022200-
CENTRAL WISCONSIN

CITY           SKY/WX    TMP DP  RH WIND       PRES   REMARKS
MEDFORD        NOT AVBL
WAUSAU         PTSUNNY   63  32  31 SW5       30.01F
MOSINEE        NOT AVBL
MARSHFIELD     PTSUNNY   61  31  32 CALM      30.03F
WISC RAPIDS    SUNNY     62  27  26 N5        30.04F
STEVENS POINT  NOT AVBL
WAUPACA        NOT AVBL
SHAWANO        NOT AVBL
CLINTONVILLE   NOT AVBL
WAUTOMA        MOSUNNY   64  29  26 CALM      30.02F
$$

WIZ038-039-048-051-022200-
FOX VALLEY

CITY           SKY/WX    TMP DP  RH WIND       PRES   REMARKS
NWS GREEN BAY  SUNNY     63  32  31 SE7       30.03F
APPLETON       MOSUNNY   63  27  25 N8        30.02F
OSHKOSH        SUNNY     62  32  32 SE6       30.03F
FOND DU LAC    SUNNY     63  35  35 NE9       30.03F
$$

WIZ022-050-052-022200-
EAST CENTRAL WISCONSIN

CITY           SKY/WX    TMP DP  RH WIND       PRES   REMARKS
EPHRAIM        NOT AVBL
STURGEON BAY   SUNNY     57  36  44 SE12      30.06F
MANITOWOC      NOT AVBL
SHEBOYGAN      SUNNY     59  36  42 NE14      30.04F
$$

LMZ563-521-522-541>543-022200-
LAKESHORE

STATION/POSITION TIME  TEMP    WIND        PRES    VSBY  WAVE
                       AIR SEA DIR/SP/G                  HT/PER
                 (UTC) (F)     (DEG/KT/KT) (MB)    (MI)  (FT/S)
SHEBOYGAN LKSHOR 2000   47      40/  7/  8 1018.6F
KEWAUNEE LKSHORE 2000   46     120/  3/  5 1017.5F
NORTHPORT PIER   2000   47     140/  9/ 10 1017.3F
N MID LAKE BUOY  1950   42 40  230/  4/  4 1017.8F         0
CHAMBERS ISLAND  2000   57      60/  7/ 10 1017.6F
MENOMINEE LKSHOR 2000   52     120/  7/  8 1016.2F
$$




USA.gov is the U.S. government's official web portal to all federal, state and local government web resources and services.